This is the latest recevied weather packets stored in our database for station/object WZ8H. If no packets are shown the sender has not sent any weather packets the latest 10 day(s).
| Time | Temp. | Humidity | Pressure | Rain* | Wind** | Luminosity | Snow |
|---|---|---|---|---|---|---|---|
| 1777473047 | 10.56° C | 90% | 1009.5 hPa | 0 mm | - | 144 W/m² | - |
| 1777472714 | 10.56° C | 90% | 1009.4 hPa | 0 mm | - | 123 W/m² | - |
| 1777472408 | 10.56° C | 91% | 1009.5 hPa | 0 mm | - | 137 W/m² | - |
| 1777472106 | 10.56° C | 91% | 1009.6 hPa | 0 mm | - | 100 W/m² | - |
| 1777471781 | 10.56° C | 90% | 1009.5 hPa | 0 mm | - | 104 W/m² | - |
| 1777471476 | 10.56° C | 90% | 1009.5 hPa | 0 mm | - | 116 W/m² | - |
| 1777471173 | 11.11° C | 90% | 1009.8 hPa | 0 mm | - | 128 W/m² | - |
| 1777470846 | 11.11° C | 91% | 1009.9 hPa | 0 mm | - | 104 W/m² | - |
| 1777470543 | 11.11° C | 90% | 1010.1 hPa | 0 mm | - | 102 W/m² | - |
| 1777470241 | 11.11° C | 90% | 1010.1 hPa | 0 mm | - | 151 W/m² | - |
| 1777469937 | 11.11° C | 90% | 1010.2 hPa | 0 mm | - | 120 W/m² | - |
| 1777469613 | 11.11° C | 90% | 1010.2 hPa | 0 mm | - | 84 W/m² | - |
| 1777469285 | 11.11° C | 90% | 1010.2 hPa | 0 mm | - | 105 W/m² | - |
| 1777468980 | 11.11° C | 91% | 1010.2 hPa | 0 mm | - | 174 W/m² | - |
| 1777468656 | 11.11° C | 91% | 1010.2 hPa | 0 mm | - | 218 W/m² | - |
| 1777468333 | 11.11° C | 91% | 1010.1 hPa | 0 mm | - | 195 W/m² | - |
| 1777468025 | 11.11° C | 91% | 1010.1 hPa | 0 mm | - | 144 W/m² | - |
| 1777467702 | 11.11° C | 91% | 1009.9 hPa | 0 mm | - | 186 W/m² | - |
| 1777467377 | 11.11° C | 91% | 1010 hPa | 0 mm | - | 146 W/m² | - |
| 1777467070 | 11.11° C | 92% | 1009.9 hPa | 0 mm | - | 113 W/m² | - |
| 1777466766 | 11.11° C | 92% | 1009.9 hPa | 0.25 mm | - | 105 W/m² | - |
| 1777466464 | 10.56° C | 92% | 1010 hPa | 0.25 mm | - | 120 W/m² | - |
| 1777466136 | 10.56° C | 92% | 1009.8 hPa | 0.25 mm | - | 113 W/m² | - |
| 1777465834 | 10.56° C | 92% | 1009.8 hPa | 0.25 mm | - | 111 W/m² | - |
| 1777465512 | 10.56° C | 92% | 1009.9 hPa | 0.25 mm | - | 86 W/m² | - |
* Rain latest hour (hover to see other rain measurements)
** Current wind speed in m/s (hover to see current wind gust speed)